Regional Weather Roundup
Issued by NWS

Home | Current Version | Previous Version | Graphics & Text | Print | Product List | Glossary Off
Versions: 1 2 3 4 5 6 7 8 9 10 11 12 13 14 15 16 17 18 19 20 21 22 23 24 25 26 27 28 29 30 31 32 33 34 35 36 37 38 39 40 41 42 43 44 45 46 47 48 49 50

000
ASUS43 KMKX 221621
RWRWI

WISCONSIN REGIONAL WEATHER ROUNDUP
NATIONAL WEATHER SERVICE MILWAUKEE/SULLIVAN WI
1100 AM CDT MON SEP 22 2014

NOTE: "FAIR" INDICATES FEW OR NO CLOUDS BELOW 12,000 FEET WITH NO
SIGNIFICANT WEATHER AND/OR OBSTRUCTIONS TO VISIBILITY.

WIZ001-002-006>008-014>016-023>028-221700-
NORTHWEST WISCONSIN

CITY           SKY/WX    TMP DP  RH WIND       PRES   REMARKS
SUPERIOR ARPT  SUNNY     61  52  72 SW7       30.20F
ASHLAND        SUNNY     61  51  70 SW9       30.21S
HAYWARD        SUNNY     57  49  74 SW6       30.24S
SIREN          SUNNY     59  49  69 W7        30.25S
RICE LAKE      PTSUNNY   59  49  69 W10       30.26S
LADYSMITH      CLOUDY    55  52  89 W5        30.27R
EAU CLAIRE     SUNNY     60  51  72 W10       30.26R
MENOMONIE      MOSUNNY   62  51  67 W9        30.27S
NEW RICHMOND   SUNNY     60  51  72 W8        30.27S
OSCEOLA        SUNNY     60  53  78 W3        30.29S
$$

WIZ003>005-009-010-017-018-221700-
NORTH CENTRAL WISCONSIN

CITY           SKY/WX    TMP DP  RH WIND       PRES   REMARKS
WOODRUFF       PTSUNNY   59  51  73 W10       30.21S
RHINELANDER    SUNNY     60  48  64 W10       30.22F
EAGLE RIVER    PTSUNNY   59  46  61 W14G20    30.18F
LAND O LAKES   PTSUNNY   60  48  64 W10G18    30.19F
PHILLIPS       CLOUDY    56  50  80 W7        30.23S
TOMAHAWK       CLOUDY    58  48  67 W10G16    30.23F
MEDFORD        CLOUDY    57  47  69 W6        30.25S
MERRILL        CLOUDY    59  47  65 W8        30.23S
$$

WIZ029-030-035-036-043>047-221700-
CENTRAL WISCONSIN

CITY           SKY/WX    TMP DP  RH WIND       PRES   REMARKS
WAUSAU         MOSUNNY   61  46  57 W9        30.23S
MOSINEE        PTSUNNY   61  46  59 W9        30.26R
MARSHFIELD     SUNNY     62  49  62 W8        30.25S
STEVENS POINT  SUNNY     58  46  62 W7        30.25S
WAUPACA        SUNNY     64  47  53 W8        30.25S
WAUTOMA        SUNNY     63  46  53 VRB7      30.26S
WISC RAPIDS    SUNNY     60  47  61 W6        30.27S
CAMP DOUGLAS   MOSUNNY   63  52  67 W10       30.27S
$$

WIZ011>013-019>022-031-037>040-048>050-221700-
NORTHEAST WISCONSIN

CITY           SKY/WX    TMP DP  RH WIND       PRES   REMARKS
ANTIGO         SUNNY     59  47  64 W10G17    30.22F
STURGEON BAY   CLOUDY    55  45  67 W6        30.22S
GREEN BAY      SUNNY     61  47  59 W7        30.23F
MANITOWOC      SUNNY     60  48  64 NW9       30.24S
APPLETON       MOSUNNY   57  46  67 W9        30.25R
CLINTONVILLE   SUNNY     61  46  59 W7        30.23F
OSHKOSH        SUNNY     59  46  62 W9        30.25S
$$

WIZ032>034-041-042-053>061-221700-
SOUTHWEST WISCONSIN

CITY           SKY/WX    TMP DP  RH WIND       PRES   REMARKS
LA CROSSE      SUNNY     60  51  72 S7        30.28S
SPARTA         SUNNY     59  47  64 W7        30.28F
VIROQUA        FAIR      61  49  63 W7        30.29F
BOSCOBEL       SUNNY     61  46  57 SW8       30.31S
PRAIRIE DU CHI SUNNY     60  45  57 SW5       30.31S
PLATTEVILLE    FAIR      60  44  55 S8        30.32S
$$

WIZ056-057-062-063-064-067-068-221700-
SOUTH CENTRAL WISCONSIN

CITY           SKY/WX    TMP DP  RH WIND       PRES   REMARKS
BARABOO/DELLS  SUNNY     60  43  53 W9        30.28R
LONE ROCK      SUNNY     63  47  55 W9        30.30S
WATERTOWN      SUNNY     60  42  52 W3        30.27F
MADISON        SUNNY     60  43  53 SW6       30.28S
MIDDLETON      FAIR      62  43  49 W8        30.29S
MONROE         SUNNY     59  41  51 W6        30.30S
JANESVILLE     SUNNY     59  41  51 W9        30.29S
$$

WIZ051-052-058>065-066-070>072-221700-
SOUTHEAST WISCONSIN

CITY           SKY/WX    TMP DP  RH WIND       PRES   REMARKS
MILWAUKEE      SUNNY     59  41  51 W7        30.28S
WAUKESHA       NOT AVBL
MILWAUKEE/TIMM SUNNY     57  41  54 W8        30.27S
RACINE         SUNNY     57  43  59 NW7       30.30R
BURLINGTON     SUNNY     57  42  56 W8        30.28S
KENOSHA        SUNNY     57  44  62 W7        30.29S
FOND DU LAC    SUNNY     61  45  55 W9        30.26S
SHEBOYGAN      SUNNY     61  44  53 NW10      30.25S
WEST BEND      SUNNY     59  41  51 W12       30.26S
JUNEAU         SUNNY     58  44  61 W8        30.28S
$$

LSZ147-162-221700-
LAKE SUPERIOR

STATION/POSITION TIME  TEMP    WIND        PRES    WAVE
                       AIR SEA DIR/SP/G            HT/PER
                 (UTC) (F)     (DEG/KT/KT) (MB)    (FT/S)
W MID LAKE BUOY  1550   50 47  250/ 14/ 16 1021.0F   1/ 3
DEVILS ISLAND    1600   52     230/ 14/ 17 1022.2S
PORT WING        1500   57     250/  6/  9 1022.7F
SAXON HARBOR     1500   58     230/  3/  6 1022.7S
$$

LMZ867-665-643>646-221700-
LAKE MICHIGAN

STATION/POSITION TIME  TEMP    WIND        PRES    WAVE
                       AIR SEA DIR/SP/G            HT/PER
                 (UTC) (F)     (DEG/KT/KT) (MB)    (FT/S)
N MID LAKE BUOY  1550   52 57  240/ 14/ 16 1022.4R   1/ 3
NORTHPORT PIER   1500   52     230/  2/  8 1022.4S
KEWAUNEE LAKESHO 1600   57     290/  5/  8 1022.4S
SHEBOYGAN LAKESH 1600   57 53  290/  2/  5 1024.8S
PORT WASHINGTON  1540   60     280/  7/ 11 1025.1S
ATWATER BUOY     1600   58     280/  6/  6 1025.9R
MILWAUKEE LAKESH 1600   57     260/  7/ 10   N/A
S MID LAKE BUOY  1550   54 62  300/  8/ 10 1025.6R   3/ 7
KENOSHA   LAKESH 1600   56     280/  6/  9 1025.4R
$$

TC  - TEMPERATURE IN CELSIUS
VSB - VISIBILITY IN STATUTE MILES
WCI - WIND CHILL INDEX
HX  - HEAT INDEX




USA.gov is the U.S. government's official web portal to all federal, state and local government web resources and services.